Zurück zum Katalog

TDRS 10

AktivKommunikationGEO
NORAD 27566·PAYLOAD·🇺🇸 United States

Gestartet Dec 5, 2002 von Cape Canaveral Space Force Station

Loading…

TLE

AktuellSource: Space-Track

Epoche: Sep 14, 2026, 05:06 UTC

1 27566U 02055A   26257.21259068 -.00000243  00000-0  00000-0 0  9993
2 27566  10.2644  42.3374 0012589 235.4566 120.9548  0.98864275 87074

Verfolge TDRS 10 in Echtzeit mit AllMySat

Download on the App Store